CW6261 Weather Reports


Display with metric or nautical units.
time (UTC)temp
F
wind
direction
speed
MPH
gust
MPH
rain 1hr
in
rain 24hr
in
rain mn
in
humidity
%
barometer
mb
20260507144202 57 8 7.0 8.0 0.00 0.00 0.00 86 101.7
20260507143703 57 358 5.0 8.0 0.00 0.00 0.00 86 101.7
20260507143202 57 59 4.0 6.0 0.00 0.00 0.00 87 101.7
20260507142702 57 9 3.0 9.0 0.00 0.00 0.00 87 101.7
20260507142202 57 60 2.0 8.0 0.00 0.00 0.00 88 101.7
20260507141702 57 45 5.0 7.0 0.00 0.00 0.00 88 101.7
20260507141202 57 76 4.0 11.0 0.00 0.00 0.00 89 101.7
20260507140702 57 44 5.0 10.0 0.00 0.00 0.00 89 101.7
20260507140202 57 40 2.0 10.0 0.00 0.00 0.00 90 101.7
20260507135703 57 93 2.0 13.0 0.00 0.00 0.00 90 101.7
20260507135202 57 45 5.0 9.0 0.00 0.00 0.00 90 101.7
20260507134702 57 20 1.0 8.0 0.00 0.00 0.00 90 101.7
20260507134203 57 77 1.0 7.0 0.00 0.00 0.00 91 101.7
20260507133702 57 45 7.0 9.0 0.00 0.00 0.00 91 101.7
20260507133201 56 84 3.0 11.0 0.00 0.00 0.00 91 101.7
20260507132702 56 59 3.0 9.0 0.00 0.00 0.00 92 101.7
20260507132201 56 38 5.0 7.0 0.00 0.00 0.00 92 101.7
20260507131702 56 32 9.0 11.0 0.00 0.00 0.00 92 101.7
20260507131203 56 31 5.0 11.0 0.00 0.00 0.00 92 101.7
20260507130702 56 93 4.0 9.0 0.00 0.00 0.00 92 101.7
20260507130202 56 42 5.0 8.0 0.00 0.00 0.00 92 101.7
20260507125702 56 25 2.0 9.0 0.00 0.00 0.00 92 101.7
20260507125202 56 325 2.0 7.0 0.00 0.00 0.00 92 101.7
20260507124702 56 46 4.0 5.0 0.00 0.00 0.00 92 101.6
20260507123702 56 26 3.0 10.0 0.00 0.00 0.00 92 101.6
20260507123202 57 118 1.0 6.0 0.00 0.00 0.00 92 101.6
20260507122702 57 92 2.0 8.0 0.00 0.00 0.00 91 101.6
20260507122203 57 63 1.0 11.0 0.00 0.00 0.00 91 101.6
20260507121702 57 46 7.0 10.0 0.00 0.00 0.00 91 101.6
20260507121202 57 53 4.0 6.0 0.00 0.00 0.00 91 101.6
20260507120202 57 39 2.0 14.0 0.00 0.00 0.00 91 101.6
20260507115702 57 111 1.0 7.0 0.00 0.00 0.00 91 101.6
20260507115202 57 123 3.0 13.0 0.00 0.00 0.00 91 101.6
20260507114702 57 30 6.0 8.0 0.00 0.00 0.00 91 101.6
20260507114202 57 66 2.0 6.0 0.00 0.00 0.00 91 101.6
20260507113701 57 58 2.0 8.0 0.00 0.00 0.00 90 101.6
20260507113202 57 29 2.0 9.0 0.00 0.00 0.00 90 101.6
20260507112702 57 115 1.0 6.0 0.00 0.00 0.00 90 101.6
20260507112202 57 37 6.0 13.0 0.00 0.00 0.00 90 101.6
20260507111702 57 19 1.0 5.0 0.00 0.00 0.00 90 101.6
20260507105702 57 79 2.0 9.0 0.00 0.00 0.00 90 101.6
20260507105205 57 11 6.0 7.0 0.00 0.00 0.00 90 101.6
20260507104702 57 48 3.0 10.0 0.00 0.00 0.00 91 101.6
20260507104202 57 44 4.0 8.0 0.00 0.00 0.00 91 101.6
20260507103202 57 19 5.0 13.0 0.00 0.00 0.00 91 101.5
20260507102702 57 28 6.0 12.0 0.00 0.00 0.00 91 101.5
20260507102202 57 40 6.0 13.0 0.00 0.00 0.00 90 101.5
20260507101702 57 49 5.0 14.0 0.00 0.00 0.00 90 101.5
20260507100702 57 194 1.0 6.0 0.00 0.00 0.00 90 101.5
20260507100202 57 139 4.0 6.0 0.00 0.00 0.00 89 101.5
20260507095702 57 100 3.0 5.0 0.00 0.00 0.00 89 101.5
20260507095202 57 11 1.0 5.0 0.00 0.00 0.00 89 101.5
20260507094702 57 21 1.0 4.0 0.00 0.00 0.00 90 101.5
20260507094202 57 42 3.0 6.0 0.00 0.00 0.00 89 101.5
20260507093203 57 54 2.0 10.0 0.00 0.00 0.00 89 101.5
20260507092703 57 41 4.0 8.0 0.00 0.00 0.00 89 101.5
20260507092202 57 56 7.0 11.0 0.00 0.00 0.00 89 101.5
20260507091202 58 53 5.0 6.0 0.00 0.00 0.00 89 101.4
20260507090702 57 106 0.0 4.0 0.00 0.00 0.00 89 101.4
20260507090203 57 101 1.0 7.0 0.00 0.00 0.00 89 101.4
20260507085702 57 87 2.0 7.0 0.00 0.00 0.00 89 101.4
20260507085202 57 48 2.0 7.0 0.00 0.00 0.00 89 101.4
20260507084702 58 14 6.0 7.0 0.00 0.00 0.00 89 101.4
20260507084202 57 48 5.0 6.0 0.00 0.00 0.00 89 101.4
20260507082702 58 58 2.0 6.0 0.00 0.00 0.00 88 101.4
20260507082202 58 34 3.0 9.0 0.00 0.00 0.00 88 101.4
20260507081702 58 38 2.0 3.0 0.00 0.00 0.00 88 101.4
20260507081202 58 70 1.0 8.0 0.00 0.00 0.00 88 101.4
20260507080202 58 110 1.0 3.0 0.00 0.00 0.00 87 101.4
20260507075702 58 36 2.0 3.0 0.00 0.00 0.00 87 101.4
20260507074702 58 67 2.0 4.0 0.00 0.00 0.00 87 101.4
20260507074202 58 45 4.0 8.0 0.00 0.00 0.00 87 101.4
20260507073703 58 44 1.0 4.0 0.00 0.00 0.00 87 101.4
20260507073202 58 102 0.0 5.0 0.00 0.00 0.00 86 101.4
20260507071703 59 96 3.0 5.0 0.00 0.00 0.00 86 101.4
20260507071202 59 48 4.0 6.0 0.00 0.00 0.00 85 101.4
20260507070702 59 73 2.0 4.0 0.00 0.00 0.00 85 101.4
20260507070202 59 53 2.0 9.0 0.00 0.00 0.00 85 101.4
20260507065703 59 110 1.0 6.0 0.00 0.00 0.00 84 101.4
20260507065202 59 75 2.0 5.0 0.00 0.00 0.00 84 101.4
20260507064202 59 87 2.0 3.0 0.00 0.00 0.00 84 101.4
20260507063702 59 30 4.0 9.0 0.00 0.00 0.00 84 101.4
20260507062702 59 54 1.0 3.0 0.00 0.00 0.00 84 101.4
20260507062202 59 103 1.0 5.0 0.00 0.00 0.00 83 101.4
20260507061702 59 56 2.0 7.0 0.00 0.00 0.00 83 101.4
20260507061202 59 102 2.0 5.0 0.00 0.00 0.00 83 101.4
20260507060703 59 52 1.0 4.0 0.00 0.00 0.00 82 101.4
20260507060202 59 95 1.0 5.0 0.00 0.00 0.00 82 101.4
20260507055202 60 55 1.0 7.0 0.00 0.00 0.00 82 101.4
20260507054702 60 85 1.0 6.0 0.00 0.00 0.00 82 101.4
20260507054202 60 106 2.0 6.0 0.00 0.00 0.00 82 101.4
20260507053702 60 52 1.0 6.0 0.00 0.00 0.00 82 101.4
20260507053202 60 38 7.0 7.0 0.00 0.00 0.00 82 101.4
20260507052702 60 91 2.0 8.0 0.00 0.00 0.00 82 101.4
20260507052202 60 94 2.0 3.0 0.00 0.00 0.00 82 101.4
20260507051702 60 66 2.0 4.0 0.00 0.00 0.00 82 101.4
20260507051202 60 41 1.0 5.0 0.00 0.00 0.00 82 101.4
20260507050702 60 65 2.0 12.0 0.00 0.00 0.00 83 101.4
20260507050202 60 79 1.0 6.0 0.00 0.00 0.00 82 101.4
20260507045702 60 13 2.0 8.0 0.00 0.00 0.00 82 101.4
20260507045202 60 75 3.0 8.0 0.00 0.00 0.00 82 101.4
20260507044702 60 36 6.0 11.0 0.00 0.00 0.00 81 101.4
20260507043702 60 36 2.0 10.0 0.00 0.00 0.00 81 101.4
20260507042702 60 57 3.0 11.0 0.00 0.00 0.00 81 101.4
20260507042202 60 97 2.0 6.0 0.00 0.00 0.00 82 101.4
20260507041702 60 44 6.0 9.0 0.00 0.00 0.00 82 101.4
20260507041202 60 39 2.0 5.0 0.00 0.00 0.00 82 101.4
20260507040702 61 34 6.0 7.0 0.00 0.00 0.00 82 101.4
20260507035702 61 33 6.0 8.0 0.00 0.00 0.00 82 101.4
20260507035202 61 54 6.0 11.0 0.00 0.00 0.00 82 101.4
20260507034703 61 35 2.0 9.0 0.00 0.00 0.00 82 101.4
20260507034202 61 99 2.0 9.0 0.00 0.00 0.00 83 101.4
20260507033702 60 37 6.0 10.0 0.00 0.00 0.00 84 101.4
20260507033202 61 55 3.0 4.0 0.00 0.00 0.00 84 101.3
20260507032702 61 95 3.0 6.0 0.00 0.00 0.00 84 101.3
20260507032203 61 77 0.0 3.0 0.00 0.00 0.00 84 101.3
20260507031202 60 86 2.0 6.0 0.00 0.00 0.00 84 101.3
20260507030702 60 52 4.0 7.0 0.00 0.00 0.00 84 101.3
20260507025702 60 313 1.0 4.0 0.00 0.00 0.00 84 101.3
20260507025201 60 357 3.0 6.0 0.00 0.00 0.00 84 101.3
20260507024702 60 18 1.0 5.0 0.00 0.00 0.00 84 101.3
20260507024201 60 21 2.0 7.0 0.00 0.00 0.00 84 101.3
20260507023702 60 172 0.0 4.0 0.00 0.00 0.00 84 101.3
20260507023202 60 12 1.0 2.0 0.00 0.00 0.00 84 101.3
20260507021702 60 50 2.0 5.0 0.00 0.00 0.00 84 101.3
20260507021202 61 35 2.0 7.0 0.00 0.00 0.00 83 101.3
20260507020702 61 16 4.0 6.0 0.00 0.00 0.00 83 101.3
20260507020204 61 53 3.0 6.0 0.00 0.00 0.00 84 101.3
20260507015702 61 13 2.0 9.0 0.00 0.00 0.00 83 101.3
20260507015202 61 47 2.0 4.0 0.00 0.00 0.00 84 101.3
20260507014702 61 39 3.0 5.0 0.00 0.00 0.00 83 101.2
20260507014202 61 29 0.0 4.0 0.00 0.00 0.00 83 101.2
20260507013702 61 346 5.0 5.0 0.00 0.00 0.00 83 101.2
20260507012703 61 37 3.0 6.0 0.00 0.00 0.00 83 101.2
20260507012202 61 348 1.0 4.0 0.00 0.00 0.00 83 101.2
20260507011702 61 44 2.0 5.0 0.00 0.00 0.00 82 101.2
20260507011202 61 33 2.0 5.0 0.00 0.00 0.00 82 101.2
20260507010702 61 33 2.0 6.0 0.00 0.00 0.00 82 101.2
20260507010202 61 305 1.0 10.0 0.00 0.00 0.00 82 101.2
20260507005702 61 17 3.0 4.0 0.00 0.00 0.00 82 101.2
20260507005202 61 35 3.0 4.0 0.00 0.00 0.00 82 101.2
20260507004702 61 62 3.0 5.0 0.00 0.00 0.00 82 101.2
20260507003202 61 16 5.0 6.0 0.00 0.00 0.00 82 101.1
20260507002202 61 30 4.0 7.0 0.00 0.00 0.00 82 101.1
20260507001703 61 10 2.0 3.0 0.00 0.00 0.00 82 101.1
20260507001202 61 51 1.0 6.0 0.00 0.00 0.00 82 101.1
20260507000702 61 63 2.0 5.0 0.00 0.00 0.00 81 101.1
20260507000204 61 23 1.0 5.0 0.00 0.00 0.00 82 101.2
20260506235701 61 9 2.0 9.0 0.00 0.00 0.00 81 101.2
20260506235202 61 47 4.0 5.0 0.00 0.00 0.00 81 101.2
20260506234702 61 359 4.0 9.0 0.00 0.00 0.00 81 101.2
20260506234202 61 53 5.0 6.0 0.00 0.00 0.00 81 101.2
20260506233702 61 298 1.0 5.0 0.00 0.00 0.00 81 101.2
20260506233202 61 4 2.0 7.0 0.00 0.00 0.00 81 101.1
20260506232202 61 339 2.0 6.0 0.00 0.00 0.00 80 101.1
20260506231702 61 2 2.0 6.0 0.00 0.00 0.00 81 101.1
20260506231202 61 5 2.0 5.0 0.00 0.00 0.00 80 101.1
20260506230702 61 1 2.0 5.0 0.00 0.00 0.00 81 101.1
20260506230202 61 2 4.0 5.0 0.00 0.00 0.00 81 101.1
20260506225202 60 73 5.0 8.0 0.00 0.00 0.00 83 101.1
20260506224702 60 13 6.0 7.0 0.00 0.00 0.00 82 101.1
20260506224202 60 38 2.0 5.0 0.00 0.00 0.00 83 101.1
20260506221703 60 26 3.0 6.0 0.00 0.00 0.00 82 101.1
20260506220702 60 47 5.0 9.0 0.00 0.00 0.00 82 101.1
20260506220202 60 51 3.0 6.0 0.00 0.00 0.00 83 101.1
20260506215203 60 216 2.0 9.0 0.00 0.00 0.00 81 101.1
20260506214202 61 346 3.0 9.0 0.00 0.00 0.00 81 101.1
20260506213702 60 25 2.0 9.0 0.00 0.00 0.00 81 101.1
20260506213203 61 282 5.0 8.0 0.00 0.00 0.00 80 101.1
20260506212702 61 5 4.0 10.0 0.00 0.00 0.00 79 101.1
20260506212202 61 52 0.0 8.0 0.00 0.00 0.00 79 101.1
20260506211702 61 344 4.0 6.0 0.00 0.00 0.00 79 101.1
20260506211203 61 341 4.0 5.0 0.00 0.00 0.00 80 101.1
20260506210202 62 17 2.0 6.0 0.00 0.00 0.00 79 101.1
20260506205702 61 59 1.0 10.0 0.00 0.00 0.00 80 101.1
20260506205202 62 66 2.0 11.0 0.00 0.00 0.00 78 101.1
20260506204702 61 48 2.0 6.0 0.00 0.00 0.00 80 101.1
20260506204202 61 19 2.0 9.0 0.00 0.00 0.00 80 101.1
20260506203702 61 353 5.0 9.0 0.00 0.00 0.00 80 101.1
20260506203202 61 252 5.0 7.0 0.00 0.00 0.00 80 101.1
20260506202702 63 343 6.0 12.0 0.00 0.00 0.00 78 101.1
20260506201702 62 336 4.0 8.0 0.00 0.00 0.00 79 101.1
20260506201202 63 353 3.0 10.0 0.00 0.00 0.00 80 101.1
20260506195702 64 33 6.0 12.0 0.00 0.00 0.00 77 101.1
20260506195202 64 26 4.0 13.0 0.00 0.00 0.00 76 101.1
20260506194702 65 290 5.0 7.0 0.00 0.00 0.00 77 101.1
20260506194202 65 13 4.0 11.0 0.00 0.00 0.00 77 101.1
20260506193701 66 10 4.0 11.0 0.00 0.00 0.00 76 101.1
20260506192702 66 346 3.0 5.0 0.00 0.00 0.00 78 101.1
20260506192202 66 47 4.0 7.0 0.00 0.00 0.00 78 101.1
20260506191702 67 73 4.0 8.0 0.00 0.00 0.00 77 101.1
20260506191202 67 1 2.0 8.0 0.00 0.00 0.00 77 101.1
20260506190702 68 133 2.0 6.0 0.00 0.00 0.00 77 101.1
20260506190202 69 0 8.0 9.0 0.00 0.00 0.00 75 101.1
20260506185702 69 43 5.0 7.0 0.00 0.00 0.00 76 101.1
20260506184702 70 85 1.0 11.0 0.00 0.00 0.00 74 101.1
20260506184202 70 41 3.0 11.0 0.00 0.00 0.00 74 101.1
20260506183702 70 21 4.0 9.0 0.00 0.00 0.00 75 101.1
20260506182702 70 99 4.0 5.0 0.00 0.00 0.00 74 101.0
20260506182202 70 340 4.0 6.0 0.00 0.00 0.00 76 101.0
20260506181703 70 69 2.0 8.0 0.00 0.00 0.00 76 101.0
20260506181202 69 20 4.0 7.0 0.00 0.00 0.00 76 101.0
20260506180702 69 64 3.0 4.0 0.00 0.00 0.00 76 101.0
20260506180202 68 68 2.0 8.0 0.00 0.00 0.00 77 101.1
20260506175702 67 18 1.0 2.0 0.00 0.00 0.00 78 101.1
20260506174702 68 102 2.0 6.0 0.00 0.00 0.00 77 101.1
20260506174202 68 11 3.0 4.0 0.00 0.00 0.00 78 101.1
20260506173702 66 14 1.0 2.0 0.00 0.00 0.00 79 101.1
20260506172702 65 119 4.0 4.0 0.00 0.00 0.00 79 101.0
20260506172203 65 37 1.0 3.0 0.00 0.00 0.00 79 101.0
20260506171702 65 123 2.0 5.0 0.00 0.00 0.00 80 101.0
20260506171202 64 29 4.0 7.0 0.00 0.00 0.00 82 101.0
20260506170702 64 33 2.0 5.0 0.00 0.00 0.00 82 101.0
20260506170202 63 101 1.0 4.0 0.00 0.00 0.00 85 101.1
20260506165702 63 11 2.0 5.0 0.00 0.00 0.00 84 101.1
20260506165203 62 101 2.0 5.0 0.00 0.00 0.00 85 101.1
20260506164704 62 127 1.0 4.0 0.00 0.00 0.00 86 101.1
20260506163702 61 42 2.0 6.0 0.00 0.00 0.00 89 101.1
20260506163202 61 125 3.0 5.0 0.00 0.00 0.00 90 101.1
20260506162702 61 18 4.0 9.0 0.00 0.00 0.00 93 101.1
20260506161702 60 72 1.0 6.0 0.00 0.00 0.00 94 101.2
20260506161202 60 96 3.0 17.0 0.00 0.00 0.00 94 101.2
20260506160702 60 51 3.0 10.0 0.00 0.00 0.00 94 101.2
20260506160202 60 33 6.0 7.0 0.00 0.00 0.00 95 101.1
20260506155703 61 32 4.0 15.0 0.00 0.00 0.00 94 101.1
20260506155203 61 67 4.0 10.0 0.00 0.00 0.00 94 101.1
20260506154702 62 14 5.0 10.0 0.00 0.00 0.00 93 101.1
20260506154202 63 37 4.0 15.0 0.00 0.00 0.00 93 101.1
20260506153702 63 30 7.0 13.0 0.00 0.00 0.00 92 101.1
20260506153202 63 353 2.0 7.0 0.00 0.00 0.00 92 101.0
20260506152702 63 50 2.0 11.0 0.00 0.00 0.00 92 101.0
20260506152202 64 36 8.0 12.0 0.00 0.00 0.00 92 101.0
20260506151702 64 33 1.0 10.0 0.00 0.00 0.00 92 101.0
20260506151202 64 48 2.0 9.0 0.00 0.00 0.00 92 101.0
20260506150702 64 291 3.0 10.0 0.00 0.00 0.00 92 101.0
20260506150203 65 42 8.0 15.0 0.00 0.00 0.00 91 101.0
20260506145703 66 41 3.0 9.0 0.00 0.00 0.00 91 101.0
20260506145202 67 49 7.0 10.0 0.00 0.00 0.00 91 101.0
20260506144702 68 36 5.0 12.0 0.00 0.00 0.00 90 101.0